Flag for Canada Weather past 2 weeks in Lloydminster, Alberta, Canada

Now
59 °F

Passing clouds.


Feels Like: 58 °F
Forecast: 55 / 73 °F
Wind: 8 mph from Southwest

Location: Lloydminister

Current Time: Aug 27, 2014 at 5:20:46 AM

Latest Report: Aug 27, 2014 at 5:00 AM


Visibility: 9 mi

Pressure: 29.86 "Hg

Humidity: 68%

Dew point: 48 °F

Location of LloydminsterLocation

Historic Weather in Lloydminster — Graph

°F

Lloydminster temperature yesterday

Maximum temperature yesterday: 77 °F (at 2:00 PM)
Minimum temperature yesterday: 46 °F (at 1:00 AM)
Average temperature yesterday: 62 °F

Past Weeks' High & Low Weather Summary

 TemperatureHumidityPressure
High82 °F (Aug 12, 3:00 PM)100% (Aug 14, 7:00 AM)30.41 "Hg (Aug 14, 7:00 AM)
Low41 °F (Aug 25, 1:00 AM)36% (Aug 26, 3:00 PM)29.66 "Hg (Aug 19, 6:00 PM)
Average62 °F75%30.00 "Hg
* Reported Aug 12 4:00 AM — Aug 27 4:00 AM, Lloydminster, Weather by CustomWeather, © 2014

Note: Actual official high and low records may vary slightly from our data, if they occured in-between our weather recording intervals... More about our weather records

Advertising

Lloydminster weather history for previous 24 hours

 ConditionsComfort  
Time TempWeatherWind HumidityBarometerVisibility
4:00 AM
Aug 27
57 °FPassing clouds.9 mph72%29.86 "Hg9 mi
3:00 AM57 °FClear.12 mph72%29.87 "Hg9 mi
2:00 AM57 °FClear.8 mph77%29.87 "Hg9 mi
1:00 AM59 °FClear.9 mph72%29.87 "Hg9 mi
12:00 AM61 °FClear.10 mph72%29.88 "Hg9 mi
11:00 PM
Aug 26
59 °FPassing clouds.8 mph77%29.89 "Hg9 mi
10:00 PM61 °FClear.3 mph72%29.90 "Hg9 mi
9:00 PM64 °FPassing clouds.No wind64%29.90 "Hg15 mi
8:00 PM68 °FPassing clouds.6 mph60%29.88 "Hg15 mi
7:00 PM73 °FPassing clouds.6 mph50%29.88 "Hg15 mi
6:00 PM75 °FPartly sunny.10 mph41%29.89 "Hg15 mi
5:00 PM75 °FPartly sunny.13 mph41%29.89 "Hg15 mi
4:00 PM75 °FBroken clouds.12 mph39%29.91 "Hg15 mi
3:00 PM77 °FMore clouds than sun.17 mph36%29.91 "Hg15 mi
2:00 PM77 °FBroken clouds.14 mph42%29.92 "Hg15 mi
1:00 PM73 °FPartly sunny.14 mph47%29.94 "Hg15 mi
12:00 PM70 °FPartly sunny.9 mph57%29.96 "Hg15 mi
11:00 AM66 °FPartly sunny.10 mph60%29.96 "Hg15 mi
10:00 AM61 °FPartly sunny.12 mph63%29.96 "Hg15 mi
9:00 AM57 °FPartly sunny.10 mph72%29.97 "Hg15 mi
8:00 AM54 °FMostly cloudy.9 mph77%29.97 "Hg15 mi
7:00 AM52 °FMostly cloudy.10 mph77%29.96 "Hg15 mi
6:00 AM50 °FPassing clouds.9 mph76%29.96 "Hg9 mi
5:00 AM52 °FOvercast.10 mph72%29.96 "Hg9 mi
Weather by CustomWeather, © 2014

See weather overviewHow to use our weather pages